GAB1603 EIDW-EDDH

Flight info

Callsign GAB1603
Flight time 1h 35m
Altitude 37000
Route ENDEQ3J ENDEQ Q36 ALAVA Z195 MALUD UL975 WAL M16 DOLAS L603 LAMSO DCT GASTU DCT OSTOR/N0377F230 T904 RIBSO RIBSO7A
Aircraft A320/M-SDE3FGHIRWY/LB1

Departure

Time 2026-05-07 21:41
Airport Dublin Airport (EIDW)

Arrival

Time 2026-05-07 23:17
Airport Hamburg Helmut Schmidt Airport (EDDH)
Time Latitude Longitude Altitude Speed Heading
2026-05-07 21:18 53.42678 -6.24634 211 ft 0 kts 158°
2026-05-07 21:23 53.42682 -6.24637 211 ft 2 kts 158°
2026-05-07 21:24 53.42700 -6.24650 211 ft 3 kts 159°
2026-05-07 21:24 53.42719 -6.24661 214 ft 3 kts 173°
2026-05-07 21:24 53.42737 -6.24660 214 ft 2 kts 219°
2026-05-07 21:24 53.42741 -6.24655 216 ft 0 kts 230°
2026-05-07 21:34 53.42736 -6.24664 213 ft 4 kts 232°
2026-05-07 21:34 53.42722 -6.24708 211 ft 4 kts 245°
2026-05-07 21:35 53.42700 -6.24782 216 ft 9 kts 238°
2026-05-07 21:35 53.42669 -6.24863 212 ft 9 kts 250°
2026-05-07 21:35 53.42699 -6.24965 216 ft 12 kts 324°
2026-05-07 21:35 53.42760 -6.25027 215 ft 9 kts 327°
2026-05-07 21:36 53.42791 -6.25129 214 ft 12 kts 275°
2026-05-07 21:36 53.42829 -6.25264 211 ft 14 kts 326°
2026-05-07 21:36 53.42923 -6.25337 219 ft 17 kts 336°
2026-05-07 21:36 53.43037 -6.25420 211 ft 19 kts 336°
2026-05-07 21:37 53.43163 -6.25512 211 ft 21 kts 337°
2026-05-07 21:37 53.43286 -6.25600 212 ft 18 kts 336°
2026-05-07 21:37 53.43391 -6.25623 212 ft 14 kts 43°
2026-05-07 21:37 53.43402 -6.25472 211 ft 13 kts 95°
2026-05-07 21:38 53.43393 -6.25314 211 ft 17 kts 95°
2026-05-07 21:38 53.43381 -6.25082 211 ft 23 kts 95°
2026-05-07 21:38 53.43366 -6.24809 211 ft 23 kts 96°
2026-05-07 21:38 53.43359 -6.24634 216 ft 13 kts 82°
2026-05-07 21:39 53.43409 -6.24555 211 ft 6 kts 11°
2026-05-07 21:39 53.43443 -6.24552 212 ft 4 kts
2026-05-07 21:39 53.43459 -6.24552 213 ft 1 kts 360°
2026-05-07 21:39 53.43517 -6.24574 213 ft 15 kts 311°
2026-05-07 21:40 53.43533 -6.24733 218 ft 14 kts 275°
2026-05-07 21:40 53.43534 -6.24755 213 ft 0 kts 274°
2026-05-07 21:40 53.43538 -6.24874 212 ft 43 kts 273°
2026-05-07 21:41 53.43586 -6.25783 210 ft 110 kts 275°
2026-05-07 21:41 53.43669 -6.27370 214 ft 160 kts 274°
2026-05-07 21:41 53.43768 -6.29374 593 ft 177 kts 275°
2026-05-07 21:41 53.44224 -6.31192 1405 ft 176 kts 315°
2026-05-07 21:42 53.45194 -6.32368 2295 ft 168 kts 319°
2026-05-07 21:42 53.46025 -6.33670 3115 ft 161 kts 309°
2026-05-07 21:42 53.46881 -6.35085 3405 ft 188 kts 327°
2026-05-07 21:42 53.48207 -6.35730 3689 ft 213 kts 354°
2026-05-07 21:43 53.49731 -6.35684 4182 ft 223 kts
2026-05-07 21:43 53.51257 -6.35104 4776 ft 232 kts 30°
2026-05-07 21:43 53.52348 -6.33129 5508 ft 237 kts 65°
2026-05-07 21:43 53.52676 -6.30372 5913 ft 257 kts 91°
2026-05-07 21:44 53.52642 -6.27247 6446 ft 275 kts 93°
2026-05-07 21:44 53.52572 -6.23994 7242 ft 281 kts 94°
2026-05-07 21:44 53.52493 -6.20695 8132 ft 284 kts 94°
2026-05-07 21:44 53.52416 -6.17352 8799 ft 287 kts 94°
2026-05-07 21:45 53.52344 -6.13969 8993 ft 290 kts 94°
2026-05-07 21:45 53.52281 -6.10593 8976 ft 289 kts 93°
2026-05-07 21:45 53.52169 -6.07229 8972 ft 287 kts 100°
2026-05-07 21:45 53.51740 -6.03954 9050 ft 290 kts 106°
2026-05-07 21:46 53.51260 -6.00641 9929 ft 292 kts 105°
2026-05-07 21:46 53.50776 -5.97294 10426 ft 310 kts 105°
2026-05-07 21:46 53.50247 -5.93643 10698 ft 333 kts 105°
2026-05-07 21:46 53.49688 -5.89797 11254 ft 344 kts 105°
2026-05-07 21:47 53.49119 -5.85863 11962 ft 350 kts 105°
2026-05-07 21:47 53.48629 -5.82418 12576 ft 354 kts 105°
2026-05-07 21:47 53.48093 -5.78348 13285 ft 360 kts 104°
2026-05-07 21:47 53.47578 -5.74200 13954 ft 365 kts 104°
2026-05-07 21:48 53.47069 -5.69998 14593 ft 369 kts 104°
2026-05-07 21:48 53.46560 -5.65811 15249 ft 373 kts 104°
2026-05-07 21:48 53.46050 -5.61696 15890 ft 376 kts 104°
2026-05-07 21:48 53.45509 -5.57387 16551 ft 379 kts 104°
2026-05-07 21:49 53.44955 -5.53038 17213 ft 382 kts 105°
2026-05-07 21:49 53.44533 -5.48608 17846 ft 388 kts 96°
2026-05-07 21:49 53.44423 -5.44070 18485 ft 391 kts 95°
2026-05-07 21:49 53.44319 -5.39504 19039 ft 394 kts 95°
2026-05-07 21:50 53.44213 -5.35121 19564 ft 397 kts 95°
2026-05-07 21:50 53.44094 -5.30481 20114 ft 399 kts 95°
2026-05-07 21:50 53.43970 -5.25810 20644 ft 402 kts 95°
2026-05-07 21:50 53.43846 -5.21172 21164 ft 405 kts 95°
2026-05-07 21:51 53.43720 -5.16434 21683 ft 408 kts 95°
2026-05-07 21:51 53.43586 -5.11663 22211 ft 411 kts 95°
2026-05-07 21:51 53.43438 -5.06856 22709 ft 414 kts 95°
2026-05-07 21:51 53.43282 -5.02021 23211 ft 417 kts 95°
2026-05-07 21:52 53.43122 -4.97157 23685 ft 420 kts 96°
2026-05-07 21:52 53.42957 -4.92251 24096 ft 422 kts 96°
2026-05-07 21:52 53.42789 -4.87320 24516 ft 424 kts 96°
2026-05-07 21:52 53.42626 -4.82439 24922 ft 427 kts 96°
2026-05-07 21:53 53.42463 -4.77460 25326 ft 429 kts 95°
2026-05-07 21:53 53.42302 -4.72461 25720 ft 431 kts 96°
2026-05-07 21:53 53.42137 -4.67431 26113 ft 433 kts 96°
2026-05-07 21:53 53.41966 -4.62372 26496 ft 435 kts 96°
2026-05-07 21:54 53.41790 -4.57298 26879 ft 438 kts 96°
2026-05-07 21:54 53.41607 -4.52191 27259 ft 440 kts 96°
2026-05-07 21:54 53.41421 -4.47065 27633 ft 442 kts 96°
2026-05-07 21:54 53.41233 -4.41911 28008 ft 444 kts 96°
2026-05-07 21:55 53.41046 -4.36802 28375 ft 446 kts 96°
2026-05-07 21:55 53.40851 -4.31607 28741 ft 448 kts 96°
2026-05-07 21:55 53.40653 -4.26381 29092 ft 451 kts 96°
2026-05-07 21:55 53.40455 -4.21123 29426 ft 453 kts 96°
2026-05-07 21:56 53.40254 -4.15845 29762 ft 455 kts 96°
2026-05-07 21:56 53.40049 -4.10543 30076 ft 457 kts 96°
2026-05-07 21:56 53.39840 -4.05227 30351 ft 459 kts 96°
2026-05-07 21:56 53.39700 -4.01695 30528 ft 460 kts 96°
2026-05-07 21:57 53.39646 -3.94572 30868 ft 465 kts 88°
2026-05-07 21:57 53.39926 -3.89158 31131 ft 467 kts 87°
2026-05-07 21:57 53.40207 -3.83743 31440 ft 467 kts 87°
2026-05-07 21:57 53.40482 -3.78323 31818 ft 466 kts 88°
2026-05-07 21:58 53.40752 -3.72915 32173 ft 465 kts 88°
2026-05-07 21:58 53.41019 -3.67514 32527 ft 465 kts 88°
2026-05-07 21:58 53.41194 -3.63942 32760 ft 464 kts 88°
2026-05-07 21:58 53.41250 -3.58545 33094 ft 461 kts 96°
2026-05-07 21:59 53.41010 -3.53200 33434 ft 460 kts 97°
2026-05-07 21:59 53.40686 -3.46113 33889 ft 460 kts 97°
2026-05-07 21:59 53.40444 -3.40768 34199 ft 460 kts 97°
2026-05-07 21:59 53.40205 -3.35430 34470 ft 460 kts 97°
2026-05-07 22:00 53.40044 -3.31809 34660 ft 460 kts 97°
2026-05-07 22:00 53.39803 -3.26479 34913 ft 460 kts 97°
2026-05-07 22:00 53.39559 -3.21190 35163 ft 461 kts 97°
2026-05-07 22:00 53.39307 -3.15834 35411 ft 461 kts 97°
2026-05-07 22:01 53.39059 -3.10483 35645 ft 461 kts 96°
2026-05-07 22:01 53.38838 -3.05120 35877 ft 462 kts 96°
2026-05-07 22:01 53.38641 -2.99736 36023 ft 463 kts 95°
2026-05-07 22:01 53.38456 -2.94353 36059 ft 462 kts 95°
2026-05-07 22:02 53.38077 -2.83639 36055 ft 461 kts 95°
2026-05-07 22:02 53.37669 -2.73008 36055 ft 461 kts 96°
2026-05-07 22:03 53.37236 -2.62302 36054 ft 460 kts 96°
2026-05-07 22:03 53.36789 -2.51613 36053 ft 460 kts 96°
2026-05-07 22:04 53.36359 -2.41364 36055 ft 460 kts 96°
2026-05-07 22:04 53.35937 -2.31515 36055 ft 460 kts 96°
2026-05-07 22:05 53.35176 -2.20975 36055 ft 459 kts 101°
2026-05-07 22:05 53.34093 -2.10450 36055 ft 459 kts 101°
2026-05-07 22:06 53.33008 -1.99920 36054 ft 459 kts 101°
2026-05-07 22:06 53.31911 -1.89399 36055 ft 459 kts 101°
2026-05-07 22:07 53.30818 -1.78963 36057 ft 459 kts 101°
2026-05-07 22:07 53.29701 -1.68449 36060 ft 459 kts 102°
2026-05-07 22:08 53.28572 -1.57955 36066 ft 459 kts 101°
2026-05-07 22:08 53.27442 -1.47461 36062 ft 459 kts 101°
2026-05-07 22:09 53.26305 -1.36979 36063 ft 459 kts 102°
2026-05-07 22:09 53.25163 -1.26557 36064 ft 459 kts 102°
2026-05-07 22:10 53.24006 -1.16090 36067 ft 459 kts 102°
2026-05-07 22:10 53.22837 -1.05618 36067 ft 459 kts 102°
2026-05-07 22:11 53.21667 -0.95155 36076 ft 459 kts 102°
2026-05-07 22:11 53.20491 -0.84772 36082 ft 459 kts 102°
2026-05-07 22:12 53.19338 -0.74769 36083 ft 458 kts 102°
2026-05-07 22:12 53.18136 -0.64329 36081 ft 458 kts 102°
2026-05-07 22:13 53.16923 -0.53904 36086 ft 458 kts 102°
2026-05-07 22:13 53.15705 -0.43556 36084 ft 458 kts 102°
2026-05-07 22:14 53.14481 -0.33152 36081 ft 458 kts 102°
2026-05-07 22:14 53.13241 -0.22732 36080 ft 458 kts 102°
2026-05-07 22:15 53.11987 -0.12338 36085 ft 458 kts 102°
2026-05-07 22:15 53.10733 -0.01951 36082 ft 458 kts 102°
2026-05-07 22:16 53.09477 0.08370 36085 ft 458 kts 102°
2026-05-07 22:16 53.08251 0.18353 36081 ft 458 kts 102°
2026-05-07 22:17 53.06968 0.28727 36082 ft 458 kts 103°
2026-05-07 22:17 53.05671 0.39092 36086 ft 458 kts 103°
2026-05-07 22:18 53.03718 0.54557 36096 ft 458 kts 103°
2026-05-07 22:19 53.02406 0.64904 36099 ft 458 kts 103°
2026-05-07 22:19 53.01081 0.75255 36102 ft 458 kts 103°
2026-05-07 22:20 52.99757 0.85532 36108 ft 458 kts 103°
2026-05-07 22:20 52.98541 0.94924 36110 ft 458 kts 103°
2026-05-07 22:21 52.97217 1.05238 36120 ft 458 kts 102°
2026-05-07 22:21 52.96026 1.15624 36119 ft 458 kts 101°
2026-05-07 22:22 52.94885 1.25943 36122 ft 458 kts 101°
2026-05-07 22:22 52.93690 1.36311 36123 ft 458 kts 102°
2026-05-07 22:23 52.92454 1.46651 36117 ft 458 kts 102°
2026-05-07 22:23 52.91217 1.56995 36113 ft 458 kts 102°
2026-05-07 22:24 52.89976 1.67350 36111 ft 458 kts 102°
2026-05-07 22:24 52.88740 1.77635 36114 ft 458 kts 102°
2026-05-07 22:25 52.87506 1.87778 36119 ft 458 kts 102°
2026-05-07 22:25 52.86231 1.98119 36113 ft 458 kts 102°
2026-05-07 22:26 52.84955 2.08438 36120 ft 458 kts 102°
2026-05-07 22:26 52.83686 2.18690 36118 ft 458 kts 102°
2026-05-07 22:27 52.82391 2.29001 36122 ft 458 kts 103°
2026-05-07 22:27 52.81087 2.39307 36123 ft 458 kts 103°
2026-05-07 22:28 52.79773 2.49611 36128 ft 458 kts 103°
2026-05-07 22:28 52.78488 2.59637 36125 ft 459 kts 103°
2026-05-07 22:29 52.77231 2.69364 36128 ft 459 kts 103°
2026-05-07 22:29 52.75916 2.79453 36127 ft 459 kts 103°
2026-05-07 22:30 52.74589 2.89573 36128 ft 459 kts 103°
2026-05-07 22:30 52.74075 2.99969 36120 ft 460 kts 85°
2026-05-07 22:31 52.75498 3.10221 36119 ft 460 kts 71°
2026-05-07 22:31 52.77544 3.20226 36113 ft 460 kts 71°
2026-05-07 22:32 52.79563 3.30265 36122 ft 460 kts 72°
2026-05-07 22:32 52.81577 3.40324 36116 ft 461 kts 72°
2026-05-07 22:33 52.83575 3.50312 36124 ft 461 kts 72°
2026-05-07 22:33 52.85591 3.60388 36129 ft 461 kts 72°
2026-05-07 22:34 52.87588 3.70466 36130 ft 461 kts 72°
2026-05-07 22:34 52.89579 3.80574 36133 ft 462 kts 72°
2026-05-07 22:35 52.91562 3.90693 36141 ft 462 kts 72°
2026-05-07 22:35 52.93519 4.00761 36136 ft 462 kts 72°
2026-05-07 22:36 52.95483 4.10885 36141 ft 461 kts 72°
2026-05-07 22:36 52.97439 4.21018 36136 ft 461 kts 72°
2026-05-07 22:37 52.99350 4.30965 36145 ft 461 kts 72°
2026-05-07 22:37 53.01273 4.41042 36143 ft 461 kts 72°
2026-05-07 22:38 53.03154 4.50970 36149 ft 461 kts 73°
2026-05-07 22:38 53.05079 4.61141 36150 ft 461 kts 73°
2026-05-07 22:39 53.06956 4.71139 36144 ft 461 kts 73°
2026-05-07 22:39 53.08846 4.81262 36143 ft 461 kts 73°
2026-05-07 22:40 53.10740 4.91451 36145 ft 461 kts 73°
2026-05-07 22:40 53.12629 5.01642 36142 ft 461 kts 73°
2026-05-07 22:41 53.14503 5.11844 36143 ft 461 kts 73°
2026-05-07 22:41 53.16372 5.22068 36141 ft 461 kts 73°
2026-05-07 22:42 53.18211 5.32218 36145 ft 461 kts 73°
2026-05-07 22:42 53.20058 5.42452 36144 ft 460 kts 73°
2026-05-07 22:43 53.21897 5.52677 36150 ft 460 kts 73°
2026-05-07 22:43 53.23727 5.62905 36140 ft 460 kts 73°
2026-05-07 22:44 53.25537 5.73078 36142 ft 460 kts 74°
2026-05-07 22:44 53.27316 5.83128 36135 ft 460 kts 74°
2026-05-07 22:45 53.29120 5.93376 36139 ft 460 kts 74°
2026-05-07 22:45 53.30870 6.03419 36132 ft 459 kts 74°
2026-05-07 22:46 53.32641 6.13616 36134 ft 460 kts 74°
2026-05-07 22:46 53.34421 6.23888 36134 ft 460 kts 74°
2026-05-07 22:47 53.36189 6.34184 36147 ft 460 kts 74°
2026-05-07 22:47 53.37912 6.44311 36140 ft 460 kts 74°
2026-05-07 22:48 53.39587 6.54204 36149 ft 460 kts 75°
2026-05-07 22:48 53.41298 6.64330 36145 ft 460 kts 74°
2026-05-07 22:49 53.43003 6.74398 36154 ft 460 kts 75°
2026-05-07 22:49 53.44693 6.84503 36142 ft 460 kts 75°
2026-05-07 22:50 53.46367 6.94661 36141 ft 460 kts 75°
2026-05-07 22:50 53.47970 7.04412 36142 ft 460 kts 75°
2026-05-07 22:50 53.48818 7.09590 36022 ft 459 kts 75°
2026-05-07 22:51 53.49652 7.14685 35452 ft 459 kts 75°
2026-05-07 22:51 53.50498 7.19854 34796 ft 458 kts 75°
2026-05-07 22:51 53.51339 7.25002 34193 ft 457 kts 75°
2026-05-07 22:51 53.52177 7.30152 33482 ft 456 kts 75°
2026-05-07 22:52 53.53006 7.35265 32908 ft 451 kts 75°
2026-05-07 22:52 53.53824 7.40331 32326 ft 448 kts 75°
2026-05-07 22:52 53.54633 7.45364 31759 ft 444 kts 75°
2026-05-07 22:52 53.55434 7.50351 31214 ft 441 kts 76°
2026-05-07 22:53 53.56215 7.55244 30684 ft 437 kts 76°
2026-05-07 22:53 53.56999 7.60166 30151 ft 434 kts 76°
2026-05-07 22:53 53.57776 7.65055 29549 ft 431 kts 76°
2026-05-07 22:53 53.58545 7.69915 28969 ft 427 kts 76°
2026-05-07 22:54 53.59306 7.74738 28418 ft 425 kts 76°
2026-05-07 22:54 53.60059 7.79529 27853 ft 422 kts 76°
2026-05-07 22:54 53.60806 7.84292 27341 ft 419 kts 76°
2026-05-07 22:54 53.61546 7.89019 26835 ft 416 kts 76°
2026-05-07 22:55 53.62269 7.93654 26362 ft 413 kts 76°
2026-05-07 22:55 53.62995 7.98317 25883 ft 410 kts 76°
2026-05-07 22:55 53.63734 8.02930 25394 ft 406 kts 74°
2026-05-07 22:55 53.64550 8.07470 24916 ft 403 kts 72°
2026-05-07 22:56 53.65384 8.11768 24443 ft 401 kts 72°
2026-05-07 22:56 53.66234 8.16017 23971 ft 398 kts 71°
2026-05-07 22:56 53.67117 8.20426 23453 ft 396 kts 71°
2026-05-07 22:56 53.67982 8.24813 22927 ft 393 kts 72°
2026-05-07 22:57 53.68814 8.29119 22426 ft 389 kts 72°
2026-05-07 22:57 53.69636 8.33434 21843 ft 384 kts 72°
2026-05-07 22:57 53.70448 8.37733 21317 ft 383 kts 72°
2026-05-07 22:57 53.71246 8.41992 20883 ft 379 kts 72°
2026-05-07 22:58 53.72035 8.46219 20446 ft 376 kts 72°
2026-05-07 22:58 53.72817 8.50411 19999 ft 373 kts 72°
2026-05-07 22:58 53.73595 8.54573 19609 ft 370 kts 72°
2026-05-07 22:58 53.74368 8.58709 19209 ft 368 kts 72°
2026-05-07 22:59 53.75132 8.62809 18817 ft 365 kts 72°
2026-05-07 22:59 53.75889 8.66884 18418 ft 362 kts 72°
2026-05-07 22:59 53.76631 8.70878 17981 ft 359 kts 72°
2026-05-07 22:59 53.77375 8.74889 17558 ft 356 kts 72°
2026-05-07 23:00 53.78113 8.78874 17137 ft 354 kts 72°
2026-05-07 23:00 53.78844 8.82831 16716 ft 352 kts 72°
2026-05-07 23:00 53.79570 8.86763 16306 ft 349 kts 72°
2026-05-07 23:00 53.80287 8.90673 15914 ft 347 kts 72°
2026-05-07 23:01 53.80994 8.94554 15642 ft 341 kts 72°
2026-05-07 23:01 53.81671 8.98279 15508 ft 331 kts 72°
2026-05-07 23:01 53.82338 9.01951 15382 ft 322 kts 73°
2026-05-07 23:01 53.82754 9.05621 15215 ft 315 kts 85°
2026-05-07 23:02 53.82724 9.09309 14963 ft 312 kts 96°
2026-05-07 23:02 53.82510 9.12929 14507 ft 308 kts 95°
2026-05-07 23:02 53.82299 9.16522 13964 ft 306 kts 95°
2026-05-07 23:02 53.82095 9.19962 13396 ft 303 kts 95°
2026-05-07 23:03 53.81888 9.23489 12807 ft 299 kts 95°
2026-05-07 23:03 53.81686 9.26967 12247 ft 296 kts 95°
2026-05-07 23:03 53.81561 9.30366 11693 ft 291 kts 86°
2026-05-07 23:03 53.81895 9.33689 11183 ft 285 kts 71°
2026-05-07 23:04 53.82702 9.36709 10848 ft 280 kts 57°
2026-05-07 23:04 53.83865 9.39324 10441 ft 277 kts 50°
2026-05-07 23:04 53.85085 9.41837 9864 ft 275 kts 50°
2026-05-07 23:04 53.86290 9.44320 9281 ft 271 kts 50°
2026-05-07 23:05 53.87471 9.46760 8784 ft 264 kts 51°
2026-05-07 23:05 53.88600 9.49096 8648 ft 251 kts 51°
2026-05-07 23:05 53.89684 9.51336 8520 ft 240 kts 51°
2026-05-07 23:05 53.90704 9.53446 8319 ft 231 kts 51°
2026-05-07 23:06 53.91885 9.55229 8080 ft 227 kts 29°
2026-05-07 23:06 53.93373 9.56058 7778 ft 227 kts
2026-05-07 23:06 53.94934 9.55803 7463 ft 228 kts 343°
2026-05-07 23:06 53.96234 9.54790 7206 ft 229 kts 336°
2026-05-07 23:07 53.97779 9.54300 6946 ft 221 kts 11°
2026-05-07 23:07 53.99159 9.55273 6749 ft 212 kts 38°
2026-05-07 23:07 54.00100 9.57093 6633 ft 203 kts 61°
2026-05-07 23:07 54.00742 9.59211 6503 ft 199 kts 62°
2026-05-07 23:08 54.01355 9.61272 6351 ft 196 kts 68°
2026-05-07 23:08 54.01551 9.63537 6148 ft 196 kts 96°
2026-05-07 23:08 54.01100 9.65700 5938 ft 199 kts 122°
2026-05-07 23:08 54.00083 9.67287 5713 ft 203 kts 148°
2026-05-07 23:09 53.98822 9.68389 5516 ft 204 kts 149°
2026-05-07 23:09 53.97562 9.69493 5346 ft 203 kts 149°
2026-05-07 23:09 53.96310 9.70592 5139 ft 202 kts 149°
2026-05-07 23:09 53.95067 9.71683 4934 ft 202 kts 149°
2026-05-07 23:10 53.93824 9.72773 4757 ft 201 kts 149°
2026-05-07 23:10 53.92583 9.73863 4595 ft 200 kts 149°
2026-05-07 23:10 53.91370 9.74926 4477 ft 199 kts 150°
2026-05-07 23:10 53.90147 9.75997 4332 ft 198 kts 149°
2026-05-07 23:11 53.88920 9.77072 4204 ft 197 kts 148°
2026-05-07 23:11 53.87707 9.78135 4079 ft 196 kts 149°
2026-05-07 23:11 53.86499 9.79189 3938 ft 195 kts 149°
2026-05-07 23:11 53.85294 9.80242 3830 ft 196 kts 149°
2026-05-07 23:12 53.84094 9.81291 3720 ft 193 kts 149°
2026-05-07 23:12 53.82899 9.82335 3591 ft 193 kts 149°
2026-05-07 23:12 53.81718 9.83367 3417 ft 194 kts 149°
2026-05-07 23:12 53.80525 9.84408 3263 ft 194 kts 149°
2026-05-07 23:13 53.79315 9.85462 3065 ft 197 kts 148°
2026-05-07 23:13 53.78106 9.86516 2994 ft 191 kts 149°
2026-05-07 23:13 53.76911 9.87558 2819 ft 198 kts 148°
2026-05-07 23:13 53.75679 9.88632 2581 ft 199 kts 149°
2026-05-07 23:14 53.74426 9.89722 2287 ft 205 kts 149°
2026-05-07 23:14 53.73142 9.90837 2007 ft 208 kts 149°
2026-05-07 23:14 53.71868 9.91943 1709 ft 200 kts 149°
2026-05-07 23:14 53.70665 9.92987 1434 ft 190 kts 149°
2026-05-07 23:15 53.69543 9.93960 1158 ft 178 kts 149°
2026-05-07 23:15 53.68486 9.94876 882 ft 165 kts 150°
2026-05-07 23:15 53.67504 9.95727 606 ft 152 kts 150°
2026-05-07 23:15 53.66595 9.96516 367 ft 143 kts 151°
2026-05-07 23:16 53.65721 9.97270 170 ft 140 kts 150°
2026-05-07 23:16 53.64892 9.97992 50 ft 123 kts 151°
2026-05-07 23:16 53.64260 9.98565 52 ft 84 kts 153°
2026-05-07 23:16 53.63836 9.98916 49 ft 60 kts 153°
2026-05-07 23:17 53.63494 9.99210 51 ft 51 kts 153°
2026-05-07 23:17 53.63276 9.99452 50 ft 23 kts 89°
2026-05-07 23:17 53.63281 9.99620 49 ft 3 kts 103°
2026-05-07 23:17 53.63278 9.99640 51 ft 0 kts 103°
2026-05-07 23:19 53.63278 9.99641 51 ft 0 kts 103°
2026-05-07 23:19 53.63274 9.99677 51 ft 7 kts 101°
2026-05-07 23:19 53.63282 9.99785 51 ft 14 kts 59°
2026-05-07 23:20 53.63358 9.99925 51 ft 9 kts 49°
2026-05-07 23:20 53.63408 10.00021 51 ft 12 kts 49°
2026-05-07 23:20 53.63425 10.00117 51 ft 6 kts 101°
2026-05-07 23:20 53.63404 10.00168 49 ft 5 kts 133°
2026-05-07 23:21 53.63386 10.00197 51 ft 3 kts 138°
2026-05-07 23:21 53.63373 10.00218 51 ft 4 kts 127°
2026-05-07 23:21 53.63370 10.00300 51 ft 6 kts 86°
2026-05-07 23:21 53.63372 10.00340 48 ft 0 kts 85°